EST,Max TemperatureF,Mean TemperatureF,Min TemperatureF,Max Dew PointF,MeanDew PointF,Min DewpointF,Max Humidity, Mean Humidity, Min Humidity, Max Sea Level PressureIn, Mean Sea Level PressureIn, Min Sea Level PressureIn, Max VisibilityMiles, Mean VisibilityMiles, Min VisibilityMiles, Max Wind SpeedMPH, Mean Wind SpeedMPH, Max Gust SpeedMPH,PrecipitationIn, CloudCover, Events, WindDirDegrees
2013-2-1,17,12,6,16,4,-2,93,76,62,30.31,29.96,29.68,10,4,0,23,14,32,0.00,7,Fog-Snow,274
2013-2-2,19,11,3,18,11,0,93,83,73,30.30,30.01,29.85,10,4,0,14,9,23,0.01,7,Fog-Snow,232
2013-2-3,21,16,12,18,15,8,93,87,78,29.96,29.79,29.68,10,2,0,28,8,33,0.03,8,Fog-Snow,265
2013-2-4,26,18,10,23,12,5,93,81,68,30.04,29.90,29.76,10,4,1,24,15,38,0.08,8,Snow,254
2013-2-5,28,26,23,27,24,21,100,91,80,29.93,29.80,29.72,10,3,0,20,9,36,0.01,8,Fog-Rain-Snow,258
2013-2-6,24,21,18,22,18,12,92,80,63,30.34,30.12,29.83,10,5,1,20,11,28,0.01,6,Snow,279
2013-2-7,30,23,16,21,18,12,88,76,67,30.35,30.23,30.04,10,10,8,16,6,25,0.00,5,,147
2013-2-8,33,26,19,31,25,16,100,91,80,30.07,29.86,29.72,10,3,0,31,14,44,0.08,8,Fog-Snow,237
2013-2-9,25,20,15,16,12,10,93,79,58,30.40,30.21,30.00,10,4,0,29,20,44,0.00,6,Fog-Snow,292
2013-2-10,37,26,16,17,13,7,81,55,39,30.38,30.27,30.07,10,10,10,14,7,18,0.00,3,,166
2013-2-11,54,42,30,43,30,21,97,79,32,30.03,29.86,29.66,10,7,2,29,14,44,0.09,7,Rain-Snow,197
2013-2-12,35,32,28,23,21,21,75,67,57,30.01,29.94,29.85,10,10,9,32,16,40,0.00,5,,271
2013-2-13,37,32,26,29,25,18,100,83,50,29.92,29.72,29.61,10,4,0,17,5,21,0.28,6,Fog-Snow,247
2013-2-14,36,30,23,28,23,19,93,78,64,29.96,29.88,29.73,10,8,2,21,13,26,0.02,7,Snow,242
2013-2-15,36,31,25,30,26,22,96,83,59,30.02,29.94,29.85,10,6,1,15,10,24,0.02,8,Snow,267
2013-2-16,25,20,14,25,16,11,100,85,66,30.00,29.90,29.80,10,5,1,16,8,21,0.01,8,Snow,310
2013-2-17,15,12,10,10,7,1,92,77,62,30.21,29.93,29.78,10,3,0,30,14,41,0.01,7,Fog-Snow,294
2013-2-18,36,22,8,16,6,0,73,57,37,30.32,30.18,30.01,10,10,9,16,10,26,0.00,1,,222
2013-2-19,39,29,19,34,23,12,93,79,48,29.98,29.75,29.59,10,5,0,30,15,45,0.14,8,Rain-Snow,236
2013-2-20,19,16,12,14,9,5,88,77,62,30.17,29.91,29.76,10,2,0,29,20,41,0.00,8,Fog-Snow,277
2013-2-21,19,16,12,12,9,7,86,77,68,30.35,30.15,30.01,10,4,0,24,14,29,0.00,6,Snow,293
2013-2-22,25,20,15,23,18,10,100,86,68,30.30,30.14,30.03,10,6,1,20,10,28,0.00,7,Rain,148
2013-2-23,39,32,24,36,30,23,100,89,79,30.07,29.90,29.78,10,6,2,9,5,,0.00,7,,206
2013-2-24,33,28,23,30,22,16,100,84,69,30.12,29.90,29.77,10,4,0,21,9,29,0.00,8,Fog-Snow,287
2013-2-25,37,29,21,19,18,17,89,67,46,30.21,30.15,30.04,10,10,8,10,6,,0.00,2,,358
2013-2-26,32,30,28,30,26,18,93,83,61,30.12,29.81,29.61,10,6,1,21,13,36,0.33,6,Rain-Snow,116
2013-2-27,36,32,28,34,30,27,100,93,75,29.68,29.59,29.53,10,5,0,21,8,28,0.10,8,Fog-Rain-Snow,239
2013-2-28,28,27,26,28,26,24,100,91,85,29.75,29.60,29.55,10,3,0,18,11,25,0.05,8,Fog-Rain-Snow,267